User: anonymous   Login
Location: Mentone
(34.5413°N, 85.5351°W)
Time: 16:47:40
(UTC-05:00)
Language:

ADEOS Rocket - Orbit

View from above orbital plane
View from above orbital plane
View from above satellite
View from above satellite

Ground track
Ground track

The orbit data is extracted from the following two-line orbital elements,

1 24279U 96046C   15152.78074154 -.00000028  00000-0  87739-5 0  9999
2 24279 098.6989 181.1386 0300732 033.5026 090.4025 13.47026142923753
Epoch (UTC): 01 June 2015 18:44:16
Eccentricity: 0.0300732
inclination: 98.6989°
perigee height: 859 km
apogee height: 1307 km
right ascension of ascending node: 181.1386°
argument of perigee: 33.5026°
revolutions per day: 13.47026142
mean anomaly at epoch: 90.4025°
orbit number at epoch: 92375

The dashed part of the orbit path shows where the satellite is in the earth's shadow,  

DLR